Location: Étang Rond
(42.7927°N, 1.0661°E)
Time: 23:00:00
(UTC+00:00)

SL-08 RB Rocket - Pass Details

Date: 08 November 2025
Orbit: 632 x 667 km, 97.8° (Epoch: 13 December)

Event Time Altitude Azimuth Distance (km) Brightness Sun altitude
Rises 04:47:09 0° 5° (N) 3,011 7.1 -20.7°
Reaches altitude 10° 04:49:29 10° 359° (N) 2,089 6.2 -20.3°
Enters shadow 04:53:30 41° 298° (WNW) 954 4.0 -19.6°
